Starlink 30309

operational
NORAD ID: 57632 Int'l Des: 2023-122 Owner: SPXS Country: US Constellation: starlink
LEOCIRCULAR

Über Starlink 30309

Beschreibung wird geladen...

Live-Position

3D-Globus wird geladen...

Nächste Überflüge

Höhenverlauf

Altitude vs Time

uPlot chart will show altitude changes over time

Zweizeiliger Elementsatz

1 57632U 23122A 25354.82337604 .00000752 00000-0 70729-4 0 9998
2 57632 43.0031 163.5709 0001874 287.8859 72.1779 15.02534908130312
Epoch: 20. Dez. 2025 • Age: 9 hours

Aktueller Status

Höhe 569.2 km
Geschwindigkeit 7.58 km/s
Subsatellitenpunkt -37.49°S, 125.82°W
Startdatum 17. Aug. 2023
Alter 2.3 years
Typ internet

Technische Details

Klassifizierung Payload
Masse 730.00 kg
Trockenmasse 700.00 kg
Gesamtmasse 730.00 kg
Länge 0.30 m
Durchmesser 4.10 m
Spannweite 29.00 m
Form Box + pan
Hersteller SPXS
Bus-Typ Starlink V2M
Phasenstatus In Orbit
Besitzer/Staat SPXS/US

Große Konstellationen

Loading constellations...